Location: Norton
(51.3000°N, 0.8167°E)
Time: 16:25:04
(UTC+00:00)

Cosmos 1000 Rocket - Pass Details

Date: 03 March 2021
Orbit: 954 x 991 km, 82.9° (Epoch: 12 April)

Event Time Altitude Azimuth Distance (km) Brightness Sun altitude
Rises 20:39:06 0° 349° (N) 3,689 8.0 -27.9°
Reaches altitude 10° 20:41:36 10° 349° (N) 2,742 7.3 -28.2°
Maximum altitude 20:47:55 84° 262° (W) 997 4.4 -29.1°
Enters shadow 20:48:33 73° 192° (SSW) 1,031 4.4 -29.2°
